Regional Weather Roundup
Issued by NWS

Home | Current Version | Previous Version | Text Only | Print | Product List | Glossary On
Versions: 1 2 3 4 5 6 7 8 9 10 11 12 13 14 15 16 17 18 19 20 21 22 23 24 25 26 27 28 29 30 31 32 33 34 35 36 37 38 39 40 41 42 43 44 45 46 47 48 49 50
000
ASUS44 KFWD 261615
RWRTX
NORTH TEXAS HOURLY WEATHER ROUNDUP
NATIONAL WEATHER SERVICE FORT WORTH TX
1100 AM CDT WED JUL 26 2017

NOTE: "FAIR" INDICATES FEW OR NO CLOUDS BELOW 12,000 FEET WITH NO
SIGNIFICANT WEATHER AND/OR OBSTRUCTIONS TO VISIBILITY.

TXZ118-119-261700-
DALLAS/FORT WORTH METROPLEX

CITY           SKY/WX    TMP DP  RH WIND       PRES   REMARKS
DFW AIRPORT    MOSUNNY   89  75  63 S17       30.07S HX  99
DALLAS LOVE    MOSUNNY   89  74  60 S14G20    30.08S HX  98
FTW MEACHAM    MOSUNNY   89  76  65 S15       30.07S HX 100
DAL-EXECUTIVE  MOSUNNY   87  75  67 S10       30.09S HX  96
FTW-ALLIANCE   MOSUNNY   88  75  65 S10G22    30.08S HX  97
FTW-NAS-JRB    MOSUNNY   89  73  59 S14       30.08S HX  97
FTW-SPINKS     MOSUNNY   88  72  58 S14G21    30.11S HX  94
ARLINGTON      SUNNY     87  75  67 S10       30.09S HX  96
GRAND PRAIRIE  SUNNY     88  72  58 S9G18     30.10S HX  94
ADDISON        MOSUNNY   88  73  62 S13G20    30.09S HX  96
MESQUITE       MOSUNNY   88  73  62 S14       30.10S HX  96
LANCASTER      MOSUNNY   85  73  68 S9        30.11S HX  92
$$

TXZ091>094-102>105-117-120-121-131>134-261700-
NORTH CENTRAL TEXAS

CITY           SKY/WX    TMP DP  RH WIND       PRES   REMARKS
SHRMAN/DENISON SUNNY     88  74  61 S13       30.09R HX  97
GAINESVILLE    SUNNY     88  73  62 S12       30.09S HX  95
BOWIE          SUNNY     88  73  61 S13       30.07S HX  96
BRIDGEPORT     MOSUNNY   89  71  55 S10       30.09S HX  94
DECATUR        SUNNY     86  73  64 S8          N/A  HX  93
DENTON         SUNNY     87  76  69 S12       30.08S HX  97
MCKINNEY       MOSUNNY   87  77  72 S12       30.08F HX  99
BONHAM         SUNNY     86  75  70 S13       30.09S HX  95
GREENVILLE     SUNNY     90  73  58 S14       30.10F HX  98
ROCKWALL       MOSUNNY   86  75  68 S18G25    30.10F HX  95
TERRELL        MOSUNNY   87  74  64 S14       30.11S HX  95
WAXAHACHIE     PTSUNNY   87  73  64 S14G20    30.12S HX  94
CLEBURNE       MOSUNNY   86  77  74 S15G24    30.11F HX  97
GRANBURY       SUNNY     91  71  53 SE10G16   30.10S HX  97
$$

TXZ083>090-098>101-113>116-127>130-139>142-154-155-261700-
WESTERN NORTH TEXAS

CITY           SKY/WX    TMP DP  RH WIND       PRES   REMARKS
WICHITA FALLS  MOSUNNY   91  71  51 SW16      30.03F HX  97
WF-KICKAPOO    SUNNY     90  71  53 SW7       30.06F HX  96
VERNON         SUNNY     91  63  38 SW12      30.04S HX  92
ABILENE        SUNNY     87  67  51 SW18G24   30.10S HX  90
ABILENE-DYESS  MOSUNNY   90  68  48 S16       30.08F HX  93
GRAHAM         SUNNY     91  69  48 S10       30.05F HX  95
BRECKENRIDGE   SUNNY     92  66  43 SW15G21   30.07F HX  94
EASTLAND       SUNNY     88  70  54 SW12      30.10S HX  93
RANGER         SUNNY     87  70  58 S13G20    30.10F HX  92
MINERAL WELLS  SUNNY     89  72  56 S12       30.07S HX  96
STEPHENVILLE   SUNNY     86  71  59 S12       30.13F HX  91
COMANCHE       SUNNY     87  72  61 S12       30.12S HX  93
BROWNWOOD      SUNNY     88  72  58 S12G18    30.12S HX  94
COLEMAN        SUNNY     87  68  53 S14G20    30.12S HX  91
$$

TXZ143>147-156>162-174-175-261700-
CENTRAL TEXAS

CITY           SKY/WX    TMP DP  RH WIND       PRES   REMARKS
WACO           SUNNY     91  70  49 S22       30.11F HX  96
WACO-TSTC      SUNNY     90  72  55 S14G23    30.11F HX  96
WACO-MCGREGOR  SUNNY     91  71  51 S16G22    30.11F HX  97
HILLSBORO      SUNNY     88  72  58 S17G25    30.11F HX  95
CORSICANA      SUNNY     88  75  65 S16G22    30.12F HX  97
MEXIA          PTSUNNY   86  73  65 S13G32    30.12S HX  93
HEARNE         MOSUNNY   89  73  59 S10G17    30.12F HX  97
CAMERON        SUNNY     90  71  53 S14       30.11F HX  96
TEMPLE         SUNNY     90  69  50 S15G26    30.12S HX  94
KILLEEN        SUNNY     89  67  48 S17       30.12F HX  91
KILLEEN-SKYLRK SUNNY     89  68  49 S17       30.12F HX  93
FORT HOOD      SUNNY     88  67  49 S17       30.09F HX  90
HAMILTON       SUNNY     89  69  53 S18       30.14S HX  93
LAMPASAS       SUNNY     88  71  56 S9G18     30.12F HX  94
$$

TXZ095>097-106>112-122>126-135>138-148>153-164>167-261700-
EAST TEXAS

CITY           SKY/WX    TMP DP  RH WIND       PRES   REMARKS
PARIS            N/A     88  76  67 S12         N/A  HX  99
SULPHUR SPRNGS MOSUNNY   87  73  62 SW14      30.12F HX  94
MOUNT PLEASANT SUNNY     89  72  56 SW7       30.12S HX  95
GILMER         MOSUNNY   87  73  64 SW7       30.12S HX  94
MINEOLA        MOSUNNY   86  73  66 SW9       30.12R HX  93
TYLER          MOSUNNY   89  74  60 S14       30.12S HX  98
LONGVIEW       MOSUNNY   88  76  67 S10       30.11F HX  99
MARSHALL         N/A     87  73  63 S8        30.14S HX  94
ATHENS         MOSUNNY   88  72  58 S7G17     30.10F HX  94
PALESTINE      SUNNY     88  75  65 S12       30.13F HX  97
JACKSONVILLE   MOSUNNY   86  75  71 S7        30.15F HX  95
HENDERSON        N/A     88  74  64 SW9G17    30.13F HX  96
CENTER         MOSUNNY   90  78  68 S8        30.14S HAZE    HX 104
NACOGDOCHES    MOSUNNY   88  75  66 SW10      30.10S HX  97
LUFKIN         MOSUNNY   88  76  67 SW8       30.12F HX  99
$$

SUPPLEMENTAL OBSERVATIONS (NWS FORT WORTH AREA)

CITY           SKY/WX    TMP DP  RH WIND       PRES   REMARKS
DENISON DAM      N/A     88  72  58 SW7         N/A  HX  94
CADDO GRASSLND   N/A     88  75  66 S9          N/A  HX  97
PAT MAYSE LAKE   N/A     84  79  84 SE10        N/A  HX  96
GREENVILLE       N/A     88  75  66 S13         N/A  HX  97
CEDAR HILL       N/A     90  73  58 S10G21      N/A  HX  98
LBJ GRASSLAND    N/A     88  73  62 S8          N/A  HX  96
COMANCHE         N/A     88  72  58 S14         N/A  HX  94
MCGREGOR         N/A     91  70  49 S10G23      N/A  HX  97
LAKE LIMESTONE   N/A     88  72  58 SW12        N/A  HX  94
ATHENS           N/A     90  73  58 S8G16       N/A  HX  98
$$

SUPPLEMENTAL OBSERVATIONS (NWS NORMAN AREA)

CITY           SKY/WX    TMP DP  RH WIND       PRES   REMARKS
GOODLETT         N/A     93  63  37 S15       30.03S HX  94
ODELL            N/A     91  70  49 SW14      30.04F HX  96
CROWELL          N/A     95  68  41 S14       30.05S HX  99
KNOX CITY        N/A     92  67  42 SW13G21   30.06F HX  95
SEYMOUR          N/A     93  67  42 S14       30.05F HX  96
MILLERS CREEK    N/A     90  70  51 S15         N/A  HX  95
$$

SUPPLEMENTAL OBSERVATIONS (NWS SAN ANGELO AREA)

CITY           SKY/WX    TMP DP  RH WIND       PRES   REMARKS
WEINERT          N/A     91  70  50 SW13      30.07F HX  96
HASKELL          N/A     90  65  43 SW14      30.07S HX  92
THROCKMORTON     N/A     92  71  49 S12       30.08S HX  98
STAMFORD         N/A     91  69  46 S15       30.08S HX  96
CLYDE            N/A     88  68  51 S14       30.13S HX  91
HAMBY            N/A     90  66  45 SW18G25     N/A  HX  92
IVIE RESERVOIR   N/A     90  68  48 S15         N/A  HX  93
COLORADO BEND    N/A     88  66  48 S13G25      N/A  HX  90
$$

SUPPLEMENTAL OBSERVATIONS (NWS SHREVEPORT AREA)

CITY           SKY/WX    TMP DP  RH WIND       PRES   REMARKS
CLARKSVILLE      N/A     90  73  58 S7G17       N/A  HX  98
TEXARKANA        N/A     88  75  66 SW5         N/A  HX  97
LINDEN           N/A     90  72  55 S5          N/A  HX  96
CADDO LAKE       N/A     91  75  59 SW5         N/A  HX 102
GILMER           N/A     90  73  58 SW7G17      N/A  HX  98
HENDERSON        N/A     88  77  70 SW12        N/A  HX 100
LUFKIN           N/A     90  77  66 MISG        N/A  HX 102
N SABINE NF      N/A     90  79  70 MISG        N/A  HX 105
S SABINE NF      N/A     90  75  62 S5          N/A  HX 100
$$

SUPPLEMENTAL OBSERVATIONS ARE A COLLECTION OF AUTOMATED INSTRUMENTS
THAT ARE MAINTAINED BY A VARIETY OF FEDERAL AND STATE AGENCIES.
CERTAIN ELEMENTS...SUCH AS HUMIDITY VALUES AND SUSTAINED WIND
SPEEDS...MAY BE APPROXIMATED.





USA.gov is the U.S. government's official web portal to all federal, state and local government web resources and services.